| time (UTC) | temp F | wind direction | speed MPH | gust MPH | rain 1hr in | rain 24hr in | rain mn in | humidity % | barometer mb |
| 20260509164605 | 71 | 160 | 2.0 | 9.0 | 0.00 | 0.00 | 0.00 | 49 | 1009.6 |
| 20260509164105 | 71 | 191 | 4.0 | 10.0 | 0.00 | 0.00 | 0.00 | 49 | 1009.5 |
| 20260509163605 | 71 | 141 | 4.0 | 9.0 | 0.00 | 0.00 | 0.00 | 48 | 1009.5 |
| 20260509163105 | 72 | 163 | 2.0 | 8.0 | 0.00 | 0.00 | 0.00 | 48 | 1009.6 |
| 20260509162605 | 72 | 263 | 3.0 | 12.0 | 0.00 | 0.00 | 0.00 | 48 | 1009.6 |
| 20260509162105 | 72 | 180 | 3.0 | 7.0 | 0.00 | 0.00 | 0.00 | 48 | 1009.8 |
| 20260509161105 | 71 | 159 | 1.0 | 8.0 | 0.00 | 0.00 | 0.00 | 52 | 1010.2 |
| 20260509160605 | 71 | 193 | 3.0 | 9.0 | 0.00 | 0.00 | 0.00 | 51 | 1010.3 |
| 20260509160105 | 70 | 134 | 3.0 | 9.0 | 0.00 | 0.00 | 0.00 | 51 | 1010.4 |
| 20260509155606 | 70 | 153 | 4.0 | 10.0 | 0.00 | 0.00 | 0.00 | 50 | 1010.6 |
| 20260509155105 | 70 | 128 | 2.0 | 5.0 | 0.00 | 0.00 | 0.00 | 51 | 1010.6 |
| 20260509154605 | 70 | 191 | 3.0 | 10.0 | 0.00 | 0.00 | 0.00 | 52 | 1010.7 |
| 20260509154105 | 70 | 209 | 2.0 | 7.0 | 0.00 | 0.00 | 0.00 | 52 | 1010.8 |
| 20260509153605 | 70 | 229 | 2.0 | 8.0 | 0.00 | 0.00 | 0.00 | 52 | 1010.8 |
| 20260509153105 | 70 | 140 | 2.0 | 8.0 | 0.00 | 0.00 | 0.00 | 52 | 1010.9 |
| 20260509152605 | 70 | 160 | 3.0 | 10.0 | 0.00 | 0.00 | 0.00 | 51 | 1010.9 |
| 20260509152105 | 69 | 196 | 3.0 | 7.0 | 0.00 | 0.00 | 0.00 | 52 | 1011.1 |
| 20260509151605 | 69 | 265 | 4.0 | 15.0 | 0.00 | 0.00 | 0.00 | 52 | 1011.1 |
| 20260509151104 | 69 | 193 | 4.0 | 10.0 | 0.00 | 0.00 | 0.00 | 51 | 1011.1 |
| 20260509150604 | 69 | 135 | 3.0 | 9.0 | 0.00 | 0.00 | 0.00 | 52 | 1011.1 |
| 20260509150105 | 69 | 155 | 3.0 | 8.0 | 0.00 | 0.00 | 0.00 | 54 | 1011.1 |
| 20260509144605 | 68 | 139 | 2.0 | 13.0 | 0.00 | 0.00 | 0.00 | 56 | 1011.0 |
| 20260509144105 | 68 | 199 | 2.0 | 8.0 | 0.00 | 0.00 | 0.00 | 56 | 1011.0 |
| 20260509143104 | 68 | 162 | 5.0 | 13.0 | 0.00 | 0.00 | 0.00 | 56 | 1011.0 |
| 20260509142605 | 68 | 153 | 2.0 | 7.0 | 0.00 | 0.00 | 0.00 | 57 | 1010.9 |
| 20260509142105 | 68 | 172 | 3.0 | 5.0 | 0.00 | 0.00 | 0.00 | 57 | 1010.8 |
| 20260509141605 | 67 | 158 | 2.0 | 8.0 | 0.00 | 0.00 | 0.00 | 59 | 1010.8 |
| 20260509140604 | 67 | 119 | 4.0 | 10.0 | 0.00 | 0.00 | 0.00 | 58 | 1010.8 |
| 20260509135604 | 66 | 160 | 2.0 | 12.0 | 0.00 | 0.00 | 0.00 | 60 | 1010.9 |
| 20260509135105 | 66 | 150 | 2.0 | 7.0 | 0.00 | 0.00 | 0.00 | 61 | 1010.8 |
| 20260509134605 | 66 | 132 | 2.0 | 9.0 | 0.00 | 0.00 | 0.00 | 61 | 1010.9 |
| 20260509134105 | 65 | 162 | 3.0 | 8.0 | 0.00 | 0.00 | 0.00 | 61 | 1011.0 |
| 20260509133604 | 65 | 105 | 1.0 | 5.0 | 0.00 | 0.00 | 0.00 | 62 | 1011.0 |
| 20260509133104 | 64 | 143 | 2.0 | 8.0 | 0.00 | 0.00 | 0.00 | 63 | 1011.0 |
| 20260509132605 | 64 | 126 | 2.0 | 7.0 | 0.00 | 0.00 | 0.00 | 63 | 1011.1 |
| 20260509132105 | 63 | 150 | 1.0 | 3.0 | 0.00 | 0.00 | 0.00 | 65 | 1011.1 |
| 20260509131605 | 63 | 108 | 1.0 | 3.0 | 0.00 | 0.00 | 0.00 | 65 | 1011.2 |
| 20260509131105 | 62 | 68 | 1.0 | 7.0 | 0.00 | 0.00 | 0.00 | 66 | 1011.2 |
| 20260509130105 | 62 | 179 | 2.0 | 6.0 | 0.00 | 0.00 | 0.00 | 66 | 1011.2 |
| 20260509125605 | 62 | 154 | 2.0 | 6.0 | 0.00 | 0.00 | 0.00 | 66 | 1011.3 |
| 20260509125104 | 61 | 143 | 1.0 | 5.0 | 0.00 | 0.00 | 0.00 | 67 | 1011.3 |
| 20260509124605 | 61 | 207 | 1.0 | 3.0 | 0.00 | 0.00 | 0.00 | 68 | 1011.3 |
| 20260509123605 | 61 | 114 | 2.0 | 5.0 | 0.00 | 0.00 | 0.00 | 68 | 1011.2 |
| 20260509123105 | 60 | 123 | 2.0 | 5.0 | 0.00 | 0.00 | 0.00 | 68 | 1011.2 |
| 20260509122104 | 60 | 128 | 2.0 | 5.0 | 0.00 | 0.00 | 0.00 | 69 | 1011.2 |
| 20260509121605 | 60 | 100 | 3.0 | 8.0 | 0.00 | 0.00 | 0.00 | 69 | 1011.2 |
| 20260509120604 | 59 | 130 | 2.0 | 6.0 | 0.00 | 0.00 | 0.00 | 70 | 1011.3 |
| 20260509120105 | 59 | 128 | 3.0 | 7.0 | 0.00 | 0.00 | 0.00 | 70 | 1011.3 |
| 20260509115605 | 59 | 105 | 2.0 | 7.0 | 0.00 | 0.00 | 0.00 | 70 | 1011.3 |
| 20260509115105 | 59 | 289 | 2.0 | 7.0 | 0.00 | 0.00 | 0.00 | 70 | 1011.4 |
| 20260509114605 | 59 | 123 | 1.0 | 5.0 | 0.00 | 0.00 | 0.00 | 70 | 1011.4 |
| 20260509114105 | 59 | 133 | 3.0 | 7.0 | 0.00 | 0.00 | 0.00 | 70 | 1011.4 |
| 20260509113604 | 59 | 109 | 2.0 | 6.0 | 0.00 | 0.00 | 0.00 | 70 | 1011.3 |
| 20260509113104 | 59 | 163 | 1.0 | 3.0 | 0.00 | 0.00 | 0.00 | 70 | 1011.3 |
| 20260509112605 | 59 | 129 | 1.0 | 6.0 | 0.00 | 0.00 | 0.00 | 70 | 1011.3 |
| 20260509112105 | 59 | 141 | 3.0 | 9.0 | 0.00 | 0.00 | 0.00 | 70 | 1011.3 |
| 20260509111605 | 59 | 122 | 1.0 | 8.0 | 0.00 | 0.00 | 0.00 | 70 | 1011.3 |
| 20260509111104 | 59 | 143 | 2.0 | 5.0 | 0.00 | 0.00 | 0.00 | 70 | 1011.4 |
| 20260509110604 | 58 | 156 | 2.0 | 7.0 | 0.00 | 0.00 | 0.00 | 70 | 1011.4 |
| 20260509110105 | 58 | 116 | 2.0 | 7.0 | 0.00 | 0.00 | 0.00 | 70 | 1011.3 |
| 20260509105104 | 58 | 124 | 1.0 | 3.0 | 0.00 | 0.00 | 0.00 | 70 | 1011.2 |
| 20260509104605 | 58 | 132 | 1.0 | 9.0 | 0.00 | 0.00 | 0.00 | 70 | 1011.2 |
| 20260509104108 | 58 | 152 | 2.0 | 6.0 | 0.00 | 0.00 | 0.00 | 70 | 1011.1 |
| 20260509103604 | 57 | 120 | 2.0 | 5.0 | 0.00 | 0.00 | 0.00 | 70 | 1011.0 |
| 20260509103104 | 57 | 144 | 1.0 | 5.0 | 0.00 | 0.00 | 0.00 | 70 | 1011.1 |
| 20260509102605 | 57 | 131 | 1.0 | 3.0 | 0.00 | 0.00 | 0.00 | 70 | 1011.1 |
| 20260509102105 | 57 | 129 | 1.0 | 7.0 | 0.00 | 0.00 | 0.00 | 70 | 1011.1 |
| 20260509101604 | 57 | 109 | 2.0 | 8.0 | 0.00 | 0.00 | 0.00 | 70 | 1011.1 |
| 20260509101104 | 57 | 135 | 1.0 | 2.0 | 0.00 | 0.00 | 0.00 | 69 | 1011.2 |
| 20260509100105 | 57 | 146 | 1.0 | 3.0 | 0.00 | 0.00 | 0.00 | 69 | 1011.1 |
| 20260509095104 | 57 | 116 | 1.0 | 6.0 | 0.00 | 0.00 | 0.00 | 69 | 1011.0 |
| 20260509094105 | 57 | 120 | 2.0 | 6.0 | 0.00 | 0.00 | 0.00 | 69 | 1011.1 |
| 20260509093605 | 56 | 137 | 1.0 | 3.0 | 0.00 | 0.00 | 0.00 | 70 | 1011.1 |
| 20260509093104 | 56 | 163 | 1.0 | 2.0 | 0.00 | 0.00 | 0.00 | 70 | 1011.1 |
| 20260509092605 | 56 | 87 | 1.0 | 6.0 | 0.00 | 0.00 | 0.00 | 70 | 1011.1 |
| 20260509092105 | 56 | 163 | 0.0 | 3.0 | 0.00 | 0.00 | 0.00 | 70 | 1011.0 |
| 20260509091604 | 55 | 52 | 0.0 | 2.0 | 0.00 | 0.00 | 0.00 | 70 | 1011.0 |
| 20260509091104 | 55 | 139 | 1.0 | 3.0 | 0.00 | 0.00 | 0.00 | 70 | 1011.1 |
| 20260509090604 | 55 | 115 | 1.0 | 3.0 | 0.00 | 0.00 | 0.00 | 69 | 1011.1 |
| 20260509090104 | 55 | 116 | 1.0 | 3.0 | 0.00 | 0.00 | 0.00 | 69 | 1011.1 |
| 20260509085604 | 54 | 128 | 1.0 | 5.0 | 0.00 | 0.00 | 0.00 | 69 | 1011.1 |
| 20260509085104 | 54 | 126 | 0.0 | 2.0 | 0.00 | 0.00 | 0.00 | 69 | 1011.1 |
| 20260509084104 | 54 | 100 | 1.0 | 2.0 | 0.00 | 0.00 | 0.00 | 69 | 1011.1 |
| 20260509083604 | 54 | 112 | 1.0 | 2.0 | 0.00 | 0.00 | 0.00 | 69 | 1011.1 |
| 20260509083105 | 53 | 120 | 0.0 | 2.0 | 0.00 | 0.00 | 0.00 | 69 | 1011.2 |
| 20260509082605 | 53 | 164 | 1.0 | 3.0 | 0.00 | 0.00 | 0.00 | 69 | 1011.1 |
| 20260509081604 | 53 | 102 | 0.0 | 1.0 | 0.00 | 0.00 | 0.00 | 68 | 1011.5 |
| 20260509080604 | 53 | 113 | 0.0 | 0.0 | 0.00 | 0.00 | 0.00 | 66 | 1011.6 |
| 20260509075604 | 54 | 114 | 0.0 | 1.0 | 0.00 | 0.00 | 0.00 | 65 | 1011.7 |
| 20260509075104 | 54 | 106 | 0.0 | 1.0 | 0.00 | 0.00 | 0.00 | 65 | 1011.6 |
| 20260509074604 | 55 | 73 | 0.0 | 2.0 | 0.00 | 0.00 | 0.00 | 64 | 1011.6 |
| 20260509074104 | 55 | 140 | 0.0 | 1.0 | 0.00 | 0.00 | 0.00 | 64 | 1011.6 |
| 20260509073604 | 55 | 123 | 0.0 | 3.0 | 0.00 | 0.00 | 0.00 | 64 | 1011.6 |
| 20260509072605 | 56 | 129 | 1.0 | 2.0 | 0.00 | 0.00 | 0.00 | 63 | 1011.6 |
| 20260509072104 | 56 | 110 | 1.0 | 3.0 | 0.00 | 0.00 | 0.00 | 63 | 1011.7 |
| 20260509071604 | 56 | 114 | 0.0 | 2.0 | 0.00 | 0.00 | 0.00 | 62 | 1011.6 |
| 20260509071104 | 56 | 120 | 0.0 | 2.0 | 0.00 | 0.00 | 0.00 | 62 | 1011.7 |
| 20260509070604 | 56 | 121 | 0.0 | 1.0 | 0.00 | 0.00 | 0.00 | 61 | 1011.8 |
| 20260509070104 | 56 | 117 | 0.0 | 0.0 | 0.00 | 0.00 | 0.00 | 61 | 1011.8 |
| 20260509065604 | 56 | 117 | 0.0 | 2.0 | 0.00 | 0.00 | 0.00 | 61 | 1011.9 |
| 20260509065104 | 56 | 144 | 0.0 | 2.0 | 0.00 | 0.00 | 0.00 | 60 | 1012.0 |
| 20260509064605 | 57 | 108 | 1.0 | 2.0 | 0.00 | 0.00 | 0.00 | 60 | 1011.9 |
| 20260509064105 | 57 | 192 | 1.0 | 3.0 | 0.00 | 0.00 | 0.00 | 59 | 1012.0 |
| 20260509063605 | 57 | 133 | 1.0 | 3.0 | 0.00 | 0.00 | 0.00 | 59 | 1012.0 |
| 20260509063105 | 57 | 105 | 0.0 | 1.0 | 0.00 | 0.00 | 0.00 | 58 | 1012.0 |
| 20260509062605 | 57 | 89 | 0.0 | 2.0 | 0.00 | 0.00 | 0.00 | 58 | 1012.1 |
| 20260509061605 | 57 | 115 | 0.0 | 0.0 | 0.00 | 0.00 | 0.00 | 57 | 1012.2 |
| 20260509061104 | 57 | 115 | 0.0 | 1.0 | 0.00 | 0.00 | 0.00 | 57 | 1012.3 |
| 20260509060604 | 57 | 157 | 0.0 | 1.0 | 0.00 | 0.00 | 0.00 | 57 | 1012.3 |
| 20260509060105 | 58 | 112 | 0.0 | 2.0 | 0.00 | 0.00 | 0.00 | 57 | 1012.3 |
| 20260509055104 | 58 | 130 | 0.0 | 1.0 | 0.00 | 0.00 | 0.00 | 56 | 1012.3 |
| 20260509054604 | 58 | 143 | 0.0 | 1.0 | 0.00 | 0.00 | 0.00 | 56 | 1012.3 |
| 20260509054104 | 58 | 118 | 0.0 | 2.0 | 0.00 | 0.00 | 0.00 | 55 | 1012.3 |
| 20260509053604 | 58 | 121 | 1.0 | 3.0 | 0.00 | 0.00 | 0.00 | 55 | 1012.5 |
| 20260509053105 | 58 | 113 | 0.0 | 0.0 | 0.00 | 0.00 | 0.00 | 55 | 1012.4 |
| 20260509052605 | 58 | 124 | 0.0 | 1.0 | 0.00 | 0.00 | 0.00 | 55 | 1012.5 |
| 20260509052105 | 59 | 147 | 0.0 | 1.0 | 0.00 | 0.00 | 0.00 | 54 | 1012.6 |
| 20260509051605 | 59 | 96 | 1.0 | 2.0 | 0.00 | 0.00 | 0.00 | 54 | 1012.6 |
| 20260509051105 | 59 | 154 | 1.0 | 3.0 | 0.00 | 0.00 | 0.00 | 54 | 1012.6 |
| 20260509050604 | 59 | 140 | 1.0 | 3.0 | 0.00 | 0.00 | 0.00 | 54 | 1012.6 |
| 20260509050105 | 59 | 102 | 0.0 | 2.0 | 0.00 | 0.00 | 0.00 | 53 | 1012.6 |
| 20260509045606 | 59 | 72 | 1.0 | 2.0 | 0.00 | 0.00 | 0.00 | 53 | 1012.6 |
| 20260509045105 | 59 | 107 | 0.0 | 2.0 | 0.00 | 0.00 | 0.00 | 53 | 1012.6 |
| 20260509044605 | 59 | 135 | 0.0 | 2.0 | 0.00 | 0.00 | 0.00 | 52 | 1012.6 |
| 20260509044104 | 59 | 164 | 0.0 | 3.0 | 0.00 | 0.00 | 0.00 | 52 | 1012.6 |
| 20260509043605 | 60 | 210 | 1.0 | 2.0 | 0.00 | 0.00 | 0.00 | 52 | 1012.5 |
| 20260509043105 | 60 | 141 | 0.0 | 1.0 | 0.00 | 0.00 | 0.00 | 52 | 1012.5 |
| 20260509042105 | 60 | 113 | 0.0 | 5.0 | 0.00 | 0.00 | 0.00 | 51 | 1012.4 |
| 20260509041605 | 60 | 178 | 0.0 | 3.0 | 0.00 | 0.00 | 0.00 | 51 | 1012.5 |
| 20260509041105 | 60 | 153 | 1.0 | 7.0 | 0.00 | 0.00 | 0.00 | 51 | 1012.5 |
| 20260509040605 | 60 | 171 | 2.0 | 7.0 | 0.00 | 0.00 | 0.00 | 51 | 1012.5 |
| 20260509040105 | 60 | 150 | 1.0 | 3.0 | 0.00 | 0.00 | 0.00 | 50 | 1012.5 |
| 20260509035605 | 60 | 146 | 1.0 | 5.0 | 0.00 | 0.00 | 0.00 | 50 | 1012.6 |
| 20260509035106 | 61 | 158 | 0.0 | 2.0 | 0.00 | 0.00 | 0.00 | 50 | 1012.5 |
| 20260509034605 | 61 | 120 | 1.0 | 2.0 | 0.00 | 0.00 | 0.00 | 49 | 1012.5 |
| 20260509034105 | 61 | 230 | 1.0 | 3.0 | 0.00 | 0.00 | 0.00 | 50 | 1012.5 |
| 20260509033605 | 61 | 182 | 0.0 | 3.0 | 0.00 | 0.00 | 0.00 | 49 | 1012.4 |
| 20260509033105 | 61 | 73 | 0.0 | 3.0 | 0.00 | 0.00 | 0.00 | 49 | 1012.3 |
| 20260509032104 | 61 | 140 | 1.0 | 3.0 | 0.00 | 0.00 | 0.00 | 48 | 1012.2 |
| 20260509031604 | 61 | 113 | 1.0 | 3.0 | 0.00 | 0.00 | 0.00 | 47 | 1012.2 |
| 20260509031105 | 61 | 167 | 1.0 | 7.0 | 0.00 | 0.00 | 0.00 | 47 | 1012.1 |
| 20260509030605 | 61 | 172 | 1.0 | 6.0 | 0.00 | 0.00 | 0.00 | 47 | 1012.2 |
| 20260509030105 | 62 | 117 | 1.0 | 5.0 | 0.00 | 0.00 | 0.00 | 47 | 1012.2 |
| 20260509025104 | 62 | 150 | 1.0 | 3.0 | 0.00 | 0.00 | 0.00 | 47 | 1012.2 |
| 20260509024605 | 62 | 184 | 2.0 | 5.0 | 0.00 | 0.00 | 0.00 | 47 | 1012.2 |
| 20260509024105 | 62 | 162 | 0.0 | 2.0 | 0.00 | 0.00 | 0.00 | 48 | 1012.2 |
| 20260509023604 | 62 | 135 | 2.0 | 7.0 | 0.00 | 0.00 | 0.00 | 48 | 1012.2 |
| 20260509023104 | 61 | 126 | 2.0 | 3.0 | 0.00 | 0.00 | 0.00 | 49 | 1012.3 |
| 20260509022605 | 61 | 148 | 1.0 | 3.0 | 0.00 | 0.00 | 0.00 | 50 | 1012.3 |
| 20260509021605 | 61 | 117 | 0.0 | 2.0 | 0.00 | 0.00 | 0.00 | 51 | 1012.3 |
| 20260509021105 | 61 | 130 | 1.0 | 3.0 | 0.00 | 0.00 | 0.00 | 52 | 1012.2 |
| 20260509020605 | 62 | 160 | 0.0 | 5.0 | 0.00 | 0.00 | 0.00 | 52 | 1012.2 |
| 20260509020105 | 62 | 128 | 0.0 | 3.0 | 0.00 | 0.00 | 0.00 | 52 | 1012.2 |
| 20260509015604 | 62 | 94 | 0.0 | 3.0 | 0.00 | 0.00 | 0.00 | 52 | 1012.2 |
| 20260509015104 | 62 | 119 | 1.0 | 7.0 | 0.00 | 0.00 | 0.00 | 52 | 1012.1 |
| 20260509014604 | 62 | 107 | 1.0 | 3.0 | 0.00 | 0.00 | 0.00 | 52 | 1012.1 |
| 20260509014105 | 62 | 126 | 1.0 | 3.0 | 0.00 | 0.00 | 0.00 | 52 | 1012.0 |
| 20260509013605 | 62 | 195 | 1.0 | 2.0 | 0.00 | 0.00 | 0.00 | 52 | 1011.9 |
| 20260509013105 | 62 | 135 | 0.0 | 2.0 | 0.00 | 0.00 | 0.00 | 52 | 1011.9 |
| 20260509012605 | 62 | 157 | 1.0 | 2.0 | 0.00 | 0.00 | 0.00 | 51 | 1011.9 |
| 20260509012105 | 62 | 100 | 0.0 | 2.0 | 0.00 | 0.00 | 0.00 | 51 | 1011.8 |
| 20260509011605 | 62 | 122 | 1.0 | 3.0 | 0.00 | 0.00 | 0.00 | 51 | 1011.7 |
| 20260509011105 | 63 | 117 | 1.0 | 3.0 | 0.00 | 0.00 | 0.00 | 50 | 1011.6 |
| 20260509010605 | 63 | 131 | 1.0 | 2.0 | 0.00 | 0.00 | 0.00 | 50 | 1011.5 |
| 20260509010105 | 63 | 136 | 1.0 | 3.0 | 0.00 | 0.00 | 0.00 | 49 | 1011.4 |
| 20260509005605 | 63 | 112 | 2.0 | 5.0 | 0.00 | 0.00 | 0.00 | 48 | 1011.4 |
| 20260509005105 | 63 | 163 | 1.0 | 3.0 | 0.00 | 0.00 | 0.00 | 47 | 1011.2 |
| 20260509004605 | 64 | 169 | 2.0 | 6.0 | 0.00 | 0.00 | 0.00 | 46 | 1011.1 |
| 20260509003605 | 64 | 120 | 1.0 | 6.0 | 0.00 | 0.00 | 0.00 | 44 | 1011.0 |
| 20260509003105 | 64 | 135 | 1.0 | 3.0 | 0.00 | 0.00 | 0.00 | 41 | 1010.9 |
| 20260509002105 | 65 | 169 | 0.0 | 1.0 | 0.00 | 0.00 | 0.00 | 41 | 1010.7 |
| 20260509001606 | 65 | 188 | 0.0 | 1.0 | 0.00 | 0.00 | 0.00 | 40 | 1010.7 |
| 20260509000604 | 65 | 123 | 1.0 | 3.0 | 0.00 | 0.00 | 0.00 | 39 | 1010.6 |
| 20260509000105 | 65 | 172 | 0.0 | 2.0 | 0.00 | 0.00 | 0.00 | 39 | 1010.6 |
| 20260508235605 | 65 | 164 | 1.0 | 3.0 | 0.00 | 0.00 | 0.00 | 39 | 1010.6 |
| 20260508235105 | 65 | 219 | 0.0 | 1.0 | 0.00 | 0.00 | 0.00 | 38 | 1010.6 |
| 20260508234105 | 65 | 218 | 1.0 | 3.0 | 0.00 | 0.00 | 0.00 | 37 | 1010.5 |
| 20260508233605 | 66 | 54 | 0.0 | 2.0 | 0.00 | 0.00 | 0.00 | 37 | 1010.4 |
| 20260508233105 | 66 | 156 | 1.0 | 3.0 | 0.00 | 0.00 | 0.00 | 37 | 1010.3 |
| 20260508232605 | 66 | 158 | 0.0 | 2.0 | 0.00 | 0.00 | 0.00 | 37 | 1010.3 |
| 20260508232104 | 66 | 163 | 0.0 | 3.0 | 0.00 | 0.00 | 0.00 | 36 | 1010.4 |
| 20260508231605 | 66 | 166 | 1.0 | 2.0 | 0.00 | 0.00 | 0.00 | 36 | 1010.3 |
| 20260508231105 | 66 | 214 | 1.0 | 3.0 | 0.00 | 0.00 | 0.00 | 37 | 1010.3 |
| 20260508230604 | 66 | 149 | 0.0 | 2.0 | 0.00 | 0.00 | 0.00 | 35 | 1010.2 |
| 20260508230105 | 66 | 192 | 1.0 | 3.0 | 0.00 | 0.00 | 0.00 | 35 | 1010.1 |
| 20260508225606 | 67 | 153 | 1.0 | 3.0 | 0.00 | 0.00 | 0.00 | 35 | 1010.2 |
| 20260508225104 | 67 | 159 | 0.0 | 3.0 | 0.00 | 0.00 | 0.00 | 35 | 1010.1 |
| 20260508224604 | 67 | 146 | 1.0 | 5.0 | 0.00 | 0.00 | 0.00 | 35 | 1010.1 |
| 20260508224104 | 67 | 313 | 1.0 | 3.0 | 0.00 | 0.00 | 0.00 | 34 | 1010.1 |
| 20260508223605 | 67 | 179 | 1.0 | 3.0 | 0.00 | 0.00 | 0.00 | 34 | 1010.1 |
| 20260508223105 | 67 | 179 | 1.0 | 2.0 | 0.00 | 0.00 | 0.00 | 34 | 1010.0 |
| 20260508222604 | 67 | 59 | 1.0 | 5.0 | 0.00 | 0.00 | 0.00 | 34 | 1010.0 |
| 20260508222104 | 67 | 91 | 2.0 | 6.0 | 0.00 | 0.00 | 0.00 | 34 | 1010.0 |
| 20260508221606 | 67 | 140 | 2.0 | 5.0 | 0.00 | 0.00 | 0.00 | 33 | 1010.0 |
| 20260508221105 | 67 | 203 | 1.0 | 3.0 | 0.00 | 0.00 | 0.00 | 34 | 1010.1 |
| 20260508220605 | 67 | 283 | 2.0 | 6.0 | 0.00 | 0.00 | 0.00 | 33 | 1010.0 |
| 20260508215605 | 68 | 341 | 2.0 | 8.0 | 0.00 | 0.00 | 0.00 | 33 | 1010.1 |
| 20260508215105 | 69 | 159 | 2.0 | 13.0 | 0.00 | 0.00 | 0.00 | 31 | 1010.1 |
| 20260508214605 | 70 | 158 | 3.0 | 12.0 | 0.00 | 0.00 | 0.00 | 32 | 1010.1 |
| 20260508214105 | 69 | 213 | 2.0 | 8.0 | 0.00 | 0.00 | 0.00 | 33 | 1010.1 |
| 20260508213605 | 69 | 69 | 1.0 | 5.0 | 0.00 | 0.00 | 0.00 | 33 | 1010.0 |
| 20260508213104 | 68 | 199 | 1.0 | 6.0 | 0.00 | 0.00 | 0.00 | 35 | 1010.1 |
| 20260508212605 | 68 | 184 | 2.0 | 5.0 | 0.00 | 0.00 | 0.00 | 34 | 1010.2 |
| 20260508211604 | 68 | 92 | 2.0 | 10.0 | 0.00 | 0.00 | 0.00 | 34 | 1010.3 |
| 20260508211104 | 68 | 161 | 2.0 | 10.0 | 0.00 | 0.00 | 0.00 | 34 | 1010.3 |
| 20260508210605 | 67 | 247 | 3.0 | 9.0 | 0.00 | 0.00 | 0.00 | 35 | 1010.4 |
| 20260508210105 | 67 | 197 | 2.0 | 12.0 | 0.00 | 0.00 | 0.00 | 34 | 1010.3 |
| 20260508205605 | 67 | 284 | 2.0 | 7.0 | 0.00 | 0.00 | 0.00 | 34 | 1010.4 |
| 20260508205105 | 67 | 305 | 2.0 | 5.0 | 0.00 | 0.00 | 0.00 | 34 | 1010.3 |
| 20260508204604 | 67 | 140 | 2.0 | 6.0 | 0.00 | 0.00 | 0.00 | 34 | 1010.3 |
| 20260508204104 | 67 | 141 | 2.0 | 8.0 | 0.00 | 0.00 | 0.00 | 33 | 1010.3 |
| 20260508203605 | 68 | 57 | 3.0 | 10.0 | 0.00 | 0.00 | 0.00 | 32 | 1010.5 |
| 20260508202104 | 69 | 181 | 4.0 | 12.0 | 0.00 | 0.00 | 0.00 | 32 | 1010.4 |
| 20260508201604 | 68 | 223 | 2.0 | 7.0 | 0.00 | 0.00 | 0.00 | 35 | 1010.5 |
| 20260508201105 | 67 | 337 | 3.0 | 12.0 | 0.00 | 0.00 | 0.00 | 33 | 1010.6 |
| 20260508200605 | 68 | 184 | 3.0 | 7.0 | 0.00 | 0.00 | 0.00 | 33 | 1010.7 |
| 20260508200105 | 68 | 223 | 5.0 | 13.0 | 0.00 | 0.00 | 0.00 | 32 | 1010.7 |
| 20260508195105 | 67 | 81 | 3.0 | 9.0 | 0.00 | 0.00 | 0.00 | 33 | 1010.7 |
| 20260508194605 | 67 | 199 | 2.0 | 10.0 | 0.00 | 0.00 | 0.00 | 33 | 1010.6 |
| 20260508194104 | 67 | 336 | 4.0 | 7.0 | 0.00 | 0.00 | 0.00 | 33 | 1010.7 |
| 20260508193605 | 67 | 48 | 2.0 | 5.0 | 0.00 | 0.00 | 0.00 | 35 | 1010.6 |
| 20260508193105 | 67 | 157 | 1.0 | 3.0 | 0.00 | 0.00 | 0.00 | 36 | 1010.6 |
| 20260508192604 | 67 | 145 | 2.0 | 5.0 | 0.00 | 0.00 | 0.00 | 35 | 1010.7 |
| 20260508192104 | 68 | 100 | 2.0 | 6.0 | 0.00 | 0.00 | 0.00 | 34 | 1010.7 |
| 20260508191105 | 68 | 73 | 2.0 | 5.0 | 0.00 | 0.00 | 0.00 | 36 | 1010.7 |
| 20260508190605 | 68 | 185 | 4.0 | 8.0 | 0.00 | 0.00 | 0.00 | 34 | 1010.8 |
| 20260508190104 | 68 | 184 | 3.0 | 9.0 | 0.00 | 0.00 | 0.00 | 35 | 1010.8 |
| 20260508185605 | 69 | 160 | 3.0 | 7.0 | 0.00 | 0.00 | 0.00 | 34 | 1010.9 |
| 20260508185104 | 69 | 185 | 2.0 | 8.0 | 0.00 | 0.00 | 0.00 | 34 | 1011.0 |
| 20260508184104 | 68 | 60 | 1.0 | 5.0 | 0.00 | 0.00 | 0.00 | 38 | 1011.1 |
| 20260508183605 | 66 | 164 | 1.0 | 8.0 | 0.00 | 0.00 | 0.00 | 35 | 1011.3 |
| 20260508183104 | 66 | 126 | 2.0 | 8.0 | 0.00 | 0.00 | 0.00 | 36 | 1011.4 |
| 20260508182105 | 66 | 182 | 3.0 | 9.0 | 0.00 | 0.00 | 0.00 | 35 | 1011.5 |
| 20260508181605 | 66 | 186 | 5.0 | 10.0 | 0.00 | 0.00 | 0.00 | 35 | 1011.6 |
| 20260508180604 | 65 | 6 | 2.0 | 3.0 | 0.00 | 0.00 | 0.00 | 35 | 1011.7 |
| 20260508180105 | 66 | 356 | 1.0 | 7.0 | 0.00 | 0.00 | 0.00 | 35 | 1011.7 |
| 20260508175605 | 66 | 275 | 2.0 | 8.0 | 0.00 | 0.00 | 0.00 | 35 | 1011.8 |
| 20260508175105 | 66 | 184 | 3.0 | 12.0 | 0.00 | 0.00 | 0.00 | 35 | 1011.8 |
| 20260508173605 | 67 | 182 | 3.0 | 9.0 | 0.00 | 0.00 | 0.00 | 34 | 1011.9 |
| 20260508173105 | 67 | 320 | 3.0 | 9.0 | 0.00 | 0.00 | 0.00 | 34 | 1011.7 |
| 20260508172105 | 67 | 105 | 3.0 | 8.0 | 0.00 | 0.00 | 0.00 | 34 | 1011.8 |
| 20260508171605 | 67 | 202 | 2.0 | 10.0 | 0.00 | 0.00 | 0.00 | 34 | 1011.9 |
| 20260508171104 | 67 | 307 | 2.0 | 7.0 | 0.00 | 0.00 | 0.00 | 34 | 1011.9 |
| 20260508170605 | 67 | 105 | 2.0 | 9.0 | 0.00 | 0.00 | 0.00 | 34 | 1011.8 |
| 20260508165605 | 66 | 135 | 2.0 | 8.0 | 0.00 | 0.00 | 0.00 | 35 | 1012.0 |
| 20260508165105 | 66 | 181 | 4.0 | 14.0 | 0.00 | 0.00 | 0.00 | 35 | 1012.2 |